Location: Chastenmatt
(46.9465°N, 8.4543°E)
Time: 08:00:22
(UTC+00:00)

Daily predictions for brighter satellites

Satellite Brightness Start Highest point End
(mag) Time Altitude Azimuth Time Altitude Azimuth Time Altitude Azimuth
CZ-4B R/B 3.2 16:38:12 10° SSE 16:43:43 73° ENE 16:49:21 10° NNW
SL-24 R/B 4.1 16:39:59 10° SSE 16:44:15 68° ENE 16:48:52 10° N
AQUARIUS 4.1 16:44:07 10° SSE 16:48:36 77° ENE 16:53:07 10° N
Cosmos 2297 Rocket 4.3 16:45:29 10° W 16:49:37 20° NW 16:53:47 10° N
Cosmos 1603 3.9 16:44:57 10° NNW 16:50:41 84° WSW 16:56:26 10° SSE
Meteor 2-10 Rocket 4.2 16:46:20 10° N 16:51:21 33° ENE 16:56:09 10° SE
CZ-2D R/B 4.1 16:53:08 10° SE 16:56:29 29° ENE 16:59:49 10° N
Cosmos 1606 Rocket 3.6 16:52:25 10° N 16:56:45 56° ENE 17:01:05 10° SSE
H-2A R/B 2.1 16:53:59 10° NNE 16:58:28 76° ESE 17:02:50 10° S
USA 234 4.0 16:53:22 10° ENE 16:59:14 37° N 17:05:08 10° WNW
YAOGAN 1 3.8 16:56:09 10° ESE 16:59:16 20° ENE 17:02:24 10° NNE
Cosmos 1892 Rocket 4.2 16:55:26 10° SSE 16:59:19 33° E 17:03:13 10° NNE
ATLAS 5 CENTAUR R/B 1.5 16:57:01 10° SW 17:01:01 79° NW 17:05:35 10° NE
FengYun 1-2 T 4.2 16:55:43 10° SSE 17:01:16 83° ENE 17:06:55 10° NNW
CZ-4C R/B 3.6 16:59:15 10° N 17:02:19 51° WNW 17:05:24 10° SSW
NOAA 12 4.5 16:58:01 10° S 17:03:14 70° WSW 17:08:29 10° NNW
SL-14 R/B 3.3 17:00:52 10° S 17:04:44 84° W 17:08:40 10° N
Helios 1A Rocket 4.4 17:02:22 10° ESE 17:05:09 18° ENE 17:07:57 10° NNE
RESURS DK-1 3.3 17:02:27 10° SW 17:06:27 46° WNW 17:10:28 10° NNE
MOS 1 Rocket 4.0 17:04:03 10° NE 17:07:46 28° E 17:11:28 10° SSE
ATLAS 3B R/B 3.8 17:01:48 10° NW 17:08:32 52° WSW 17:15:30 10° SSE
Cosmos 2228 2.9 17:04:28 10° N 17:08:45 83° E 17:13:02 10° S
BREEZE-M DEB (TANK) 4.5 17:07:58 10° W 17:10:15 20° SSW 17:12:43 10° SSE
Cosmos 2142 Rocket 4.4 17:04:38 10° N 17:10:50 82° E 17:16:58 10° S
Meteor 2-5 Rocket 3.8 17:08:03 10° SSW 17:13:39 82° WNW 17:19:13 10° N
SKYMED 2 4.0 17:09:39 10° NNE 17:13:48 42° E 17:17:56 10° S
CZ-4C R/B 3.4 17:09:55 10° W 17:14:43 36° NW 17:20:29 10° NNE
Cosmos 1538 Rocket 4.0 17:10:10 10° NNW 17:15:16 55° ENE 17:20:20 10° SE
Aureole 3 4.2 17:12:45 10° NNE 17:15:27 20° ENE 17:17:54 10° ESE
SJ 16-02 2.5 17:13:06 10° SSE 17:16:35 23° E 17:18:57 15° ENE
CZ-3B R/B 2.4 17:14:39 10° NW 17:16:49 32° NNE 17:20:09 14° E
Nadezhda 4 Rocket 4.4 17:12:19 10° SSE 17:18:01 39° E 17:23:41 10° NNE
Cosmos 1777 Rocket 4.0 17:14:34 10° S 17:19:45 63° ESE 17:24:59 10° NNE
Cosmos 2263 Rocket 2.7 17:16:07 10° SW 17:21:45 61° WNW 17:27:22 10° NNE
Cosmos 1455 2.9 17:22:47 10° N 17:26:11 30° ENE 17:29:35 10° SE
Cosmos 2058 Rocket 3.1 17:23:44 10° N 17:28:12 60° ENE 17:32:39 10° SSE
Cosmos 1300 3.9 17:26:44 10° NNW 17:30:25 46° W 17:34:04 10° SSW
X-37B 2.4 17:29:42 10° SSW 17:32:08 20° SSE 17:33:14 17° SE
ARGOS 3.7 17:32:44 10° SE 17:37:31 34° ENE 17:42:21 10° N
Okean 1-7 Rocket 3.6 17:36:19 10° S 17:40:47 60° E 17:45:19 10° NNE
CREW DRAGON DEMO-1 DEB 3.2 17:38:36 10° WNW 17:41:24 42° NNE 17:41:52 38° NE
Lacrosse 5 1.9 17:36:29 10° NW 17:41:32 64° NNE 17:45:00 20° ESE
NOSS 3-1 (C) 4.4 17:35:02 10° NNW 17:41:47 42° NE 17:47:11 20° E
Cosmos 1726 Rocket 4.1 17:39:25 10° NNW 17:43:43 60° W 17:48:02 10° S
ISS -2.9 17:41:13 10° SSW 17:44:18 34° SE 17:45:00 30° ESE
ERS-2 2.2 17:42:03 19° NNE 17:44:29 53° ESE 17:48:02 10° S
Cosmos 1939 Rocket 3.7 17:40:35 10° S 17:44:38 55° W 17:48:40 10° NNW
CZ-2C R/B 3.7 17:45:49 24° E 17:46:07 24° E 17:50:34 10° SE
PSLV R/B 4.2 17:43:31 15° NNE 17:46:51 48° E 17:50:56 10° S
EXPRESS MD2 4.3 17:38:50 10° WNW 17:47:16 74° SSW 17:50:21 19° SE
CSL-04 Debris 4.5 17:42:32 10° SE 17:47:34 42° ENE 17:52:38 10° N
Meteor 1-24 Rocket 4.3 17:42:37 10° SSW 17:47:51 54° WNW 17:53:03 10° N
COSMOS 2455 2.8 17:43:04 10° SSW 17:49:04 83° ESE 17:54:02 16° NE
Cosmos 1626 Rocket 3.9 17:47:56 10° SSE 17:52:03 41° E 17:54:00 26° NE
Cosmos 1844 3.9 17:48:41 10° S 17:54:03 48° ESE 17:57:10 24° NE
Cosmos 1833 Rocket 3.9 17:50:35 10° N 17:54:41 21° NE 17:54:41 21° NE
Cosmos 2026 Rocket 4.5 17:49:43 10° SSE 17:55:08 35° E 18:00:39 10° NNE
IRS-1C Rocket 4.1 17:50:08 10° SSE 17:55:24 83° WSW 18:00:41 10° NNW
Cosmos 2082 Rocket 4.0 17:53:14 10° N 17:55:56 15° NNE 17:55:56 15° NNE
CZ-4 R/B 1.3 17:52:46 10° SSE 17:56:53 80° ENE 18:00:57 10° N
NOAA 15 4.5 17:52:59 10° SSE 17:58:13 74° ENE 18:03:30 10° N
USA 229 DEB 4.4 17:52:01 10° NW 17:58:42 39° NE 18:01:49 28° E
USA 229 4.4 17:52:07 10° NW 17:58:47 39° NE 18:01:52 28° E
COSMO-SKYMED 1 3.0 17:57:39 10° N 18:01:58 62° WNW 18:06:15 10° SSW
SL-08 RB Rocket 4.4 18:05:15 33° NE 18:05:15 33° NE 18:08:29 10° N
USA 267 4.1 18:04:12 27° ESE 18:05:50 30° SE 18:11:25 10° S
CZ-4B R/B 3.2 18:09:01 10° N 18:12:03 31° WNW 18:15:01 10° SW
Okean-O 2.7 18:08:35 10° S 18:13:00 79° WSW 18:17:29 10° NNW
NOSS 3-1 (A) 4.4 18:07:33 10° NW 18:14:20 42° NE 18:16:57 34° ENE
CZ-2C R/B 3.8 18:09:24 10° S 18:14:35 56° W 18:20:04 10° NNW
Cosmos 1844 Rocket 2.6 18:10:22 10° SSW 18:16:02 85° ESE 18:19:24 26° NNE
H-2A R/B 1.9 18:11:59 10° SSE 18:16:57 85° WSW 18:22:06 10° NNW
Cosmos 923 Rocket 3.9 18:11:38 10° NNW 18:17:01 82° ENE 18:22:20 10° SSE
OE (NEXTSAT) 4.5 18:14:35 10° WSW 18:17:46 67° SSW 18:17:46 67° SSW
Meteor 1-21 Rocket 4.0 18:13:04 10° S 18:18:36 83° E 18:24:10 10° NNE
Cosmos 1689 Rocket 3.4 18:20:00 33° SSW 18:20:00 33° SSW 18:21:44 10° SSW
Aureole 2 Rocket 2.9 18:16:27 10° SW 18:19:23 47° WNW 18:19:28 47° WNW
ATLAS 2AS CENTAUR R/B 4.3 18:13:27 10° W 18:20:15 30° NNW 18:25:31 15° NNE
Cosmos 2195 Rocket 4.4 18:14:23 10° S 18:20:37 64° E 18:26:53 10° NNE
Cosmos 158 Rocket 4.0 18:17:03 10° NNW 18:22:25 84° WSW 18:27:48 10° SSE
Meteor 2-8 Rocket 4.3 18:16:44 10° N 18:22:48 66° ENE 18:28:51 10° SSE
Cosmos 1898 Rocket 3.9 18:19:20 10° S 18:23:42 43° SE 18:23:42 43° SE
Cosmos 1680 Rocket 3.3 18:19:09 10° NNW 18:24:25 73° ENE 18:26:36 35° SE
Cosmos 1627 Rocket 4.4 18:24:23 10° S 18:30:28 67° E 18:36:41 10° NNE
Cosmos 2098 Rocket 4.3 18:24:57 10° SSE 18:31:48 57° E 18:39:04 10° NNE
Cosmos 1602 Rocket 3.5 18:27:44 10° S 18:31:35 68° SSE 18:31:35 68° SSE
SAR-Lupe-4 4.4 18:31:27 41° NNW 18:32:14 50° WNW 18:35:42 10° SSW
Cosmos 1818 3.6 18:27:40 10° SW 18:33:05 79° NW 18:34:52 44° NNE
YAOGAN 1 3.5 18:30:52 10° S 18:35:02 48° W 18:39:15 10° NNW
Cosmos 1428 Rocket 4.4 18:29:15 10° S 18:35:28 68° E 18:41:46 10° NNE
CSL-04 Rocket 3.7 18:33:24 10° SSE 18:38:47 82° WSW 18:44:18 10° NNW
Helios 1A Rocket 3.7 18:35:54 10° S 18:39:55 51° W 18:44:00 10° NNW
USA 234 3.5 18:40:20 46° NE 18:41:30 52° NNE 18:47:49 10° NW
Cosmos 1092 Rocket 4.0 18:39:24 10° SSW 18:45:37 79° W 18:51:49 10° N
ATLAS 5 CENTAUR R/B 3.7 18:43:24 10° WNW 18:46:29 19° NNW 18:47:38 17° N
Iridium 4 Rocket 3.7 18:40:57 10° N 18:46:42 81° W 18:51:59 10° S
Cosmos 1812 Rocket 4.1 18:45:25 10° NNW 18:48:54 52° NW 18:48:54 52° NW
Cosmos 2344 4.2 18:45:03 10° NW 18:54:13 73° NE 18:59:35 38° ESE
SJ 16-02 2.6 18:50:48 10° SW 18:54:56 39° WNW 18:55:59 33° NNW
Cosmos 2112 Rocket 4.2 18:56:38 10° NNW 19:01:51 66° WSW 19:02:18 62° SW
CZ-4C R/B 4.3 19:01:05 10° NW 19:05:14 19° N 19:06:30 18° N
X-37B 4.0 19:05:15 10° WSW 19:05:31 12° WSW 19:05:31 12° WSW
COSMOS 2406 4.0 19:11:00 10° NNW 19:14:49 43° NNW 19:14:49 43° NNW
ARGOS 4.5 19:12:48 10° SSW 19:17:44 37° W 19:22:43 10° NNW
ISS -0.3 19:17:41 10° W 19:17:58 12° W 19:17:58 12° W
Lacrosse 5 3.4 19:19:52 10° WNW 19:24:14 30° SW 19:24:15 30° SW
CZ-2C R/B 3.3 19:27:19 53° W 19:27:19 53° W 19:32:10 10° SSW
NOSS 3-1 (C) 4.2 19:25:45 10° NW 19:33:15 69° SW 19:34:40 59° S
Cosmos 1553 Rocket 4.5 19:30:45 10° NNW 19:36:14 57° NW 19:36:14 57° NW
Cosmos 1833 Rocket 4.2 19:33:48 10° NNW 19:36:25 29° NNW 19:36:25 29° NNW
Cosmos 2082 Rocket 4.2 19:36:05 10° NNW 19:37:48 20° NNW 19:37:48 20° NNW
USA 267 4.0 19:51:34 46° SW 19:51:34 46° SW 19:55:54 10° SW
USA 229 DEB 4.2 19:42:55 10° NW 19:49:18 64° W 19:49:18 64° W
USA 229 4.2 19:43:01 10° NW 19:49:21 64° W 19:49:21 64° W
NOSS 3-1 (A) 4.4 19:58:19 10° NW 20:04:26 59° WNW 20:04:26 59° WNW
